Weather History for Memphis, TN

Change the Weather History Date:

Wednesday, August 15, 2012

  Actual Average Record
Temperature  
Mean Temperature 81 °F 82 °F  
Max Temperature 91 °F 92 °F 106 °F (2007)
Min Temperature 71 °F 73 °F 58 °F (1963)
Degree Days  
Heating Degree Days 0 0  
Month to date heating degree days 0 0  
Since 1 June heating degree days 0 0  
Since 1 July heating degree days 0 0  
Cooling Degree Days 16 17  
Month to date cooling degree days 287 267  
Year to date cooling degree days 1968 1575  
Since 1 June cooling degree days 1388 1254  
Growing Degree Days 31 (Base 50)    
Moisture  
Dew Point 63 °F    
Average Humidity 55    
Maximum Humidity 73    
Minimum Humidity 36    
Precipitation  
Precipitation 0.00 in 0.09 in 3.61 in (1901)
Month to date precipitation 1.52 1.61  
Year to date precipitation 18.48 34.11  
Snow  
Snow 0.00 in 0.00 in - ()
Month to date snowfall 0.0 0.0  
Since 1 June snowfall 0.0 0.0  
Since 1 July snowfall 0.0 0.0  
Snow Depth 0.00 in    
Sea Level Pressure  
Sea Level Pressure 29.96 in    
Wind  
Wind Speed 5 mph (SSE)    
Max Wind Speed 13 mph    
Max Gust Speed 17 mph    
Visibility 10 miles    
Events      
T = Trace of Precipitation, MM = Missing Value Source: NWS Daily Summary

Daily Weather History Graph

Daily Weather History Graph

Search for Another Location

Airport:

Trip Planner

Search our weather history database for the weather conditions in past years. The results will help you decide how hot, cold, wet, or windy it might be!

Date:

Astronomy

Aug. 15, 2012 Rise Set
Actual Time 6:20 AM CDT 7:47 PM CDT
Civil Twilight 5:53 AM CDT 8:14 PM CDT
Nautical Twilight 5:21 AM CDT 8:46 PM CDT
Astronomical Twilight 4:47 AM CDT 9:20 PM CDT
Moon 4:19 AM CDT (8/15) 6:20 PM CDT (8/15)
Length of Visible Light 14h 21m
Length of Day
13h 27m
Waning Crescent, 4% of the Moon is Illuminated
Aug 15
Waning Crescent
Aug 17
New
Aug 24
First Quarter
Aug 31
Full
Sep 8
Last Quarter

Hourly Weather History & Observations

Time (CDT) Temp. Heat Index Dew Point Humidity Pressure Visibility Wind Dir Wind Speed Gust Speed Precip Events Conditions
12:54 AM 73.9 °F - 62.1 °F 66% 29.95 in 10.0 mi ENE 6.9 mph - N/A   Overcast
1:54 AM 73.9 °F - 63.0 °F 68% 29.94 in 10.0 mi NE 5.8 mph - N/A   Mostly Cloudy
2:54 AM 73.0 °F - 62.1 °F 68% 29.93 in 10.0 mi SE 3.5 mph - N/A   Mostly Cloudy
3:54 AM 73.9 °F - 62.1 °F 66% 29.94 in 10.0 mi East 8.1 mph - N/A   Overcast
4:54 AM 73.0 °F - 62.1 °F 68% 29.95 in 10.0 mi Calm Calm - N/A   Mostly Cloudy
5:54 AM 72.0 °F - 62.1 °F 71% 29.95 in 10.0 mi East 6.9 mph - N/A   Mostly Cloudy
6:54 AM 72.0 °F - 62.1 °F 71% 29.98 in 10.0 mi SE 4.6 mph - N/A   Mostly Cloudy
7:54 AM 73.0 °F - 62.1 °F 68% 30.00 in 10.0 mi SSE 4.6 mph - N/A   Mostly Cloudy
8:54 AM 77.0 °F - 63.0 °F 62% 30.01 in 10.0 mi East 3.5 mph - N/A   Mostly Cloudy
9:54 AM 80.1 °F 81.7 °F 64.0 °F 58% 30.01 in 10.0 mi Variable 3.5 mph - N/A   Mostly Cloudy
10:54 AM 82.9 °F 84.4 °F 64.0 °F 53% 30.01 in 10.0 mi Variable 3.5 mph - N/A   Scattered Clouds
11:54 AM 84.9 °F 85.9 °F 63.0 °F 48% 30.00 in 10.0 mi SE 3.5 mph - N/A   Scattered Clouds
12:54 PM 87.1 °F 87.0 °F 61.0 °F 41% 29.98 in 10.0 mi Calm Calm - N/A   Scattered Clouds
1:54 PM 89.1 °F 90.3 °F 64.0 °F 43% 29.96 in 10.0 mi SSW 10.4 mph 17.3 mph N/A   Scattered Clouds
2:54 PM 90.0 °F 90.6 °F 63.0 °F 40% 29.95 in 10.0 mi SSW 6.9 mph 16.1 mph N/A   Scattered Clouds
3:54 PM 91.0 °F 90.5 °F 60.1 °F 35% 29.93 in 10.0 mi Variable 3.5 mph - N/A   Partly Cloudy
4:54 PM 90.0 °F 90.6 °F 63.0 °F 40% 29.91 in 10.0 mi SSE 3.5 mph - N/A   Scattered Clouds
5:54 PM 89.1 °F 90.0 °F 63.0 °F 42% 29.91 in 10.0 mi South 6.9 mph - N/A   Mostly Cloudy
6:54 PM 89.1 °F 90.0 °F 63.0 °F 42% 29.92 in 10.0 mi SSE 6.9 mph - N/A   Mostly Cloudy
7:54 PM 87.1 °F 88.3 °F 64.0 °F 46% 29.93 in 10.0 mi South 9.2 mph - N/A   Partly Cloudy
8:54 PM 82.4 °F 84.6 °F 66.2 °F 58% 29.95 in 10.0 mi SSW 8.1 mph - N/A   Partly Cloudy
9:54 PM 80.1 °F 82.1 °F 66.0 °F 62% 29.96 in 10.0 mi SSW 6.9 mph - N/A   Clear
10:54 PM 80.1 °F 82.1 °F 66.0 °F 62% 29.97 in 10.0 mi South 6.9 mph - N/A   Partly Cloudy
11:54 PM 78.1 °F - 66.0 °F 66% 29.97 in 10.0 mi South 8.1 mph - N/A   Clear